| time (UTC) | temp F | wind direction | speed knots | gust knots | rain 1hr in | rain 24hr in | rain mn in | humidity % | barometer mb |
| 20260508120050 | 42 | 332 | 0.0 | 1.7 | 0.00 | 0.04 | 0.00 | 95 | 1011.8 |
| 20260508114549 | 42 | 26 | 0.0 | 0.9 | 0.00 | 0.04 | 0.00 | 96 | 1011.9 |
| 20260508113104 | 41 | 28 | 0.0 | 0.0 | 0.00 | 0.04 | 0.00 | 97 | 1011.8 |
| 20260508111551 | 40 | 136 | 0.0 | 0.9 | 0.00 | 0.04 | 0.00 | 97 | 1011.7 |
| 20260508110053 | 39 | 135 | 0.0 | 0.0 | 0.00 | 0.04 | 0.00 | 96 | 1011.5 |
| 20260508104546 | 39 | 138 | 0.0 | 0.9 | 0.00 | 0.04 | 0.00 | 96 | 1011.7 |
| 20260508103046 | 38 | 138 | 0.0 | 0.0 | 0.00 | 0.04 | 0.00 | 96 | 1011.6 |
| 20260508101547 | 38 | 138 | 0.0 | 0.9 | 0.00 | 0.04 | 0.00 | 96 | 1011.8 |
| 20260508100043 | 38 | 126 | 0.0 | 0.0 | 0.00 | 0.04 | 0.00 | 96 | 1011.7 |
| 20260508094541 | 38 | 133 | 0.0 | 0.0 | 0.00 | 0.04 | 0.00 | 96 | 1011.7 |
| 20260508093046 | 38 | 134 | 0.0 | 0.0 | 0.00 | 0.04 | 0.00 | 95 | 1011.8 |
| 20260508091549 | 38 | 132 | 0.0 | 0.0 | 0.00 | 0.04 | 0.00 | 95 | 1011.8 |
| 20260508090040 | 39 | 132 | 0.0 | 0.0 | 0.00 | 0.04 | 0.00 | 95 | 1011.9 |
| 20260508084536 | 39 | 131 | 0.0 | 0.0 | 0.00 | 0.04 | 0.00 | 94 | 1012.0 |
| 20260508083033 | 40 | 133 | 0.0 | 0.9 | 0.00 | 0.04 | 0.00 | 94 | 1012.1 |
| 20260508081532 | 40 | 133 | 0.0 | 0.0 | 0.00 | 0.04 | 0.00 | 94 | 1012.2 |
| 20260508080039 | 40 | 136 | 0.0 | 0.0 | 0.00 | 0.04 | 0.00 | 93 | 1012.3 |
| 20260508074540 | 40 | 137 | 0.0 | 0.0 | 0.00 | 0.04 | 0.00 | 94 | 1012.3 |
| 20260508073029 | 40 | 137 | 0.0 | 0.0 | 0.00 | 0.04 | 0.00 | 93 | 1012.5 |
| 20260508071531 | 40 | 138 | 0.0 | 0.0 | 0.00 | 0.04 | 0.00 | 92 | 1012.5 |
| 20260508070024 | 41 | 136 | 0.0 | 0.0 | 0.00 | 0.04 | 0.00 | 90 | 1012.6 |
| 20260508064522 | 41 | 138 | 0.0 | 0.9 | 0.00 | 0.04 | 0.00 | 90 | 1012.6 |
| 20260508063020 | 42 | 270 | 0.0 | 0.0 | 0.00 | 0.04 | 0.00 | 90 | 1012.5 |
| 20260508061521 | 42 | 150 | 0.0 | 0.9 | 0.00 | 0.04 | 0.00 | 90 | 1012.5 |
| 20260508060017 | 43 | 128 | 0.0 | 0.0 | 0.00 | 0.04 | 0.00 | 88 | 1012.4 |
| 20260508054515 | 43 | 128 | 0.0 | 1.7 | 0.00 | 0.04 | 0.00 | 88 | 1012.4 |
| 20260508053013 | 43 | 138 | 0.0 | 0.0 | 0.00 | 0.04 | 0.00 | 87 | 1012.3 |
| 20260508051509 | 44 | 141 | 0.0 | 0.0 | 0.00 | 0.04 | 0.00 | 85 | 1012.2 |
| 20260508050008 | 45 | 140 | 0.0 | 0.0 | 0.00 | 0.04 | 0.00 | 83 | 1012.2 |
| 20260508044505 | 46 | 141 | 0.0 | 0.0 | 0.00 | 0.04 | 0.04 | 81 | 1012.1 |
| 20260508043006 | 47 | 140 | 0.0 | 0.0 | 0.00 | 0.04 | 0.04 | 77 | 1012.1 |
| 20260508041505 | 46 | 141 | 0.0 | 0.9 | 0.00 | 0.04 | 0.04 | 79 | 1012.0 |
| 20260508040009 | 45 | 139 | 0.0 | 0.9 | 0.00 | 0.04 | 0.04 | 84 | 1011.8 |
| 20260508034502 | 44 | 140 | 0.0 | 0.0 | 0.00 | 0.04 | 0.04 | 85 | 1011.7 |
| 20260508033002 | 44 | 139 | 0.0 | 0.0 | 0.00 | 0.04 | 0.04 | 84 | 1011.5 |
| 20260508031503 | 45 | 140 | 0.0 | 0.9 | 0.00 | 0.04 | 0.04 | 82 | 1011.6 |
| 20260508030001 | 45 | 142 | 0.0 | 0.0 | 0.00 | 0.04 | 0.04 | 80 | 1011.5 |
| 20260508024601 | 46 | 139 | 0.0 | 0.0 | 0.00 | 0.04 | 0.04 | 81 | 1011.4 |
| 20260508023100 | 46 | 139 | 0.0 | 0.0 | 0.00 | 0.04 | 0.04 | 79 | 1011.3 |
| 20260508021600 | 47 | 139 | 0.0 | 0.0 | 0.00 | 0.04 | 0.04 | 76 | 1011.2 |
| 20260508014559 | 49 | 141 | 0.0 | 0.0 | 0.00 | 0.04 | 0.04 | 72 | 1010.8 |
| 20260508013058 | 50 | 139 | 0.0 | 0.9 | 0.00 | 0.04 | 0.04 | 71 | 1010.6 |
| 20260508011557 | 51 | 140 | 0.0 | 0.0 | 0.00 | 0.04 | 0.04 | 70 | 1010.4 |
| 20260508010056 | 52 | 139 | 0.0 | 0.0 | 0.00 | 0.04 | 0.04 | 66 | 1010.4 |
| 20260508004609 | 54 | 141 | 0.0 | 0.0 | 0.00 | 0.04 | 0.04 | 63 | 1010.3 |
| 20260508003056 | 55 | 140 | 0.0 | 0.9 | 0.00 | 0.04 | 0.04 | 59 | 1010.3 |
| 20260508001555 | 56 | 228 | 0.0 | 1.7 | 0.00 | 0.04 | 0.04 | 56 | 1010.3 |
| 20260508000054 | 56 | 249 | 0.0 | 3.5 | 0.00 | 0.04 | 0.04 | 55 | 1010.2 |
| 20260507234553 | 57 | 302 | 0.0 | 5.2 | 0.00 | 0.04 | 0.04 | 55 | 1010.2 |
| 20260507233052 | 57 | 14 | 0.0 | 2.6 | 0.00 | 0.04 | 0.04 | 58 | 1010.3 |
| 20260507231555 | 56 | 212 | 0.0 | 3.5 | 0.00 | 0.04 | 0.04 | 59 | 1010.4 |
| 20260507230059 | 56 | 143 | 0.9 | 3.5 | 0.00 | 0.04 | 0.04 | 61 | 1010.6 |
| 20260507224550 | 56 | 156 | 0.0 | 1.7 | 0.01 | 0.04 | 0.04 | 70 | 1010.8 |
| 20260507223049 | 54 | 1 | 0.0 | 0.9 | 0.04 | 0.04 | 0.04 | 72 | 1011.0 |
| 20260507221549 | 54 | 12 | 0.0 | 2.6 | 0.04 | 0.04 | 0.04 | 65 | 1010.9 |
| 20260507220047 | 52 | 4 | 0.0 | 2.6 | 0.04 | 0.04 | 0.04 | 73 | 1011.0 |
| 20260507214647 | 51 | 4 | 0.9 | 8.7 | 0.04 | 0.04 | 0.04 | 75 | 1011.2 |
| 20260507213053 | 55 | 359 | 1.7 | 7.0 | 0.00 | 0.00 | 0.00 | 57 | 1011.2 |
| 20260507211555 | 59 | 342 | 1.7 | 5.2 | 0.00 | 0.00 | 0.00 | 46 | 1010.9 |
| 20260507210052 | 59 | 184 | 2.6 | 9.6 | 0.00 | 0.00 | 0.00 | 49 | 1010.5 |
| 20260507204542 | 58 | 105 | 4.3 | 10.4 | 0.00 | 0.00 | 0.00 | 50 | 1010.6 |
| 20260507203049 | 59 | 283 | 5.2 | 13.9 | 0.00 | 0.00 | 0.00 | 50 | 1010.8 |
| 20260507201544 | 59 | 205 | 6.1 | 13.0 | 0.00 | 0.00 | 0.00 | 52 | 1010.9 |
| 20260507200039 | 59 | 156 | 3.5 | 10.4 | 0.00 | 0.00 | 0.00 | 51 | 1011.2 |
| 20260507194600 | 59 | 229 | 5.2 | 22.6 | 0.00 | 0.00 | 0.00 | 54 | 1011.5 |
| 20260507193034 | 58 | 107 | 4.3 | 12.2 | 0.00 | 0.00 | 0.00 | 54 | 1012.0 |
| 20260507191532 | 58 | 159 | 1.7 | 13.0 | 0.00 | 0.00 | 0.00 | 54 | 1012.2 |
| 20260507190028 | 58 | 159 | 5.2 | 15.6 | 0.00 | 0.00 | 0.00 | 51 | 1012.4 |
| 20260507184527 | 57 | 332 | 5.2 | 12.2 | 0.00 | 0.00 | 0.00 | 51 | 1012.4 |
| 20260507183033 | 58 | 123 | 3.5 | 10.4 | 0.00 | 0.00 | 0.00 | 47 | 1012.7 |
| 20260507181524 | 58 | 132 | 2.6 | 9.6 | 0.00 | 0.00 | 0.00 | 44 | 1012.8 |
| 20260507180024 | 57 | 105 | 5.2 | 15.6 | 0.00 | 0.00 | 0.00 | 44 | 1012.8 |
| 20260507174528 | 57 | 216 | 2.6 | 12.2 | 0.00 | 0.00 | 0.00 | 41 | 1012.9 |
| 20260507173021 | 58 | 194 | 4.3 | 9.6 | 0.00 | 0.00 | 0.00 | 40 | 1013.3 |
| 20260507171515 | 57 | 79 | 2.6 | 11.3 | 0.00 | 0.00 | 0.00 | 42 | 1013.6 |
| 20260507170015 | 56 | 192 | 2.6 | 8.7 | 0.00 | 0.00 | 0.00 | 43 | 1014.1 |
| 20260507164511 | 56 | 143 | 2.6 | 11.3 | 0.00 | 0.00 | 0.00 | 41 | 1014.2 |
| 20260507163008 | 56 | 164 | 3.5 | 8.7 | 0.00 | 0.00 | 0.00 | 41 | 1014.3 |
| 20260507161505 | 55 | 180 | 1.7 | 7.0 | 0.00 | 0.00 | 0.00 | 45 | 1014.6 |
| 20260507160001 | 55 | 150 | 3.5 | 7.8 | 0.00 | 0.00 | 0.00 | 41 | 1015.0 |
| 20260507154606 | 54 | 106 | 2.6 | 7.8 | 0.00 | 0.00 | 0.00 | 43 | 1015.2 |
| 20260507153056 | 52 | 186 | 1.7 | 7.8 | 0.00 | 0.00 | 0.00 | 43 | 1015.2 |
| 20260507151553 | 52 | 183 | 1.7 | 7.8 | 0.00 | 0.00 | 0.00 | 45 | 1015.5 |
| 20260507150056 | 51 | 188 | 0.9 | 5.2 | 0.00 | 0.00 | 0.00 | 45 | 1015.8 |
| 20260507144546 | 50 | 178 | 1.7 | 5.2 | 0.00 | 0.00 | 0.00 | 46 | 1016.1 |
| 20260507143043 | 50 | 179 | 0.9 | 5.2 | 0.00 | 0.00 | 0.00 | 48 | 1016.3 |
| 20260507141542 | 48 | 215 | 0.9 | 4.3 | 0.00 | 0.00 | 0.00 | 52 | 1016.3 |
| 20260507140038 | 47 | 162 | 0.9 | 4.3 | 0.00 | 0.00 | 0.00 | 55 | 1016.4 |
| 20260507134534 | 46 | 153 | 0.0 | 3.5 | 0.00 | 0.00 | 0.00 | 56 | 1016.3 |
| 20260507133033 | 45 | 148 | 0.0 | 2.6 | 0.00 | 0.00 | 0.00 | 60 | 1016.6 |
| 20260507131525 | 43 | 202 | 0.0 | 3.5 | 0.00 | 0.00 | 0.00 | 63 | 1016.8 |
| 20260507130030 | 42 | 139 | 0.0 | 1.7 | 0.00 | 0.00 | 0.00 | 69 | 1016.8 |
| 20260507124520 | 40 | 229 | 0.0 | 1.7 | 0.00 | 0.00 | 0.00 | 74 | 1016.7 |
| 20260507123011 | 37 | 288 | 0.0 | 0.0 | 0.00 | 0.00 | 0.00 | 82 | 1016.7 |
| 20260507121509 | 35 | 290 | 0.0 | 0.0 | 0.00 | 0.00 | 0.00 | 86 | 1016.5 |